TimeEET,TemperatureF,Dew PointF,Humidity,Sea Level PressureIn,VisibilityMPH,Wind Direction,Wind SpeedMPH,Gust SpeedMPH,PrecipitationIn,Events,Conditions,WindDirDegrees,DateUTC
12:20 AM,50.0,44.6,82,30.04,-9999.0,North,5.8,-,N/A,,Unknown,350,2012-11-04 22:20:00
12:50 AM,50.0,44.6,82,30.04,-9999.0,Variable,3.5,-,N/A,,Unknown,0,2012-11-04 22:50:00
1:20 AM,50.0,44.6,82,30.04,-9999.0,Variable,2.3,-,N/A,,Unknown,0,2012-11-04 23:20:00
1:50 AM,50.0,44.6,82,30.04,-9999.0,Variable,3.5,-,N/A,,Unknown,0,2012-11-04 23:50:00
2:20 AM,48.2,44.6,87,30.01,-9999.0,Variable,2.3,-,N/A,,Unknown,0,2012-11-05 00:20:00
2:50 AM,50.0,44.6,82,30.01,-9999.0,Variable,3.5,-,N/A,,Unknown,0,2012-11-05 00:50:00
3:20 AM,48.2,44.6,87,30.01,-9999.0,Variable,3.5,-,N/A,,Unknown,0,2012-11-05 01:20:00
3:50 AM,48.2,44.6,87,30.01,-9999.0,Variable,3.5,-,N/A,,Unknown,0,2012-11-05 01:50:00
4:20 AM,50.0,44.6,82,30.01,-9999.0,NNE,4.6,-,N/A,,Unknown,20,2012-11-05 02:20:00
4:50 AM,50.0,44.6,82,29.98,-9999.0,Variable,3.5,-,N/A,,Unknown,0,2012-11-05 02:50:00
5:20 AM,50.0,44.6,82,29.98,-9999.0,Variable,2.3,-,N/A,,Unknown,0,2012-11-05 03:20:00
5:50 AM,50.0,44.6,82,29.98,-9999.0,Variable,1.2,-,N/A,,Unknown,0,2012-11-05 03:50:00
6:20 AM,48.2,44.6,87,29.98,-9999.0,Variable,3.5,-,N/A,,Unknown,0,2012-11-05 04:20:00
6:50 AM,48.2,44.6,87,30.01,6.2,Calm,Calm,-,N/A,,Partly Cloudy,0,2012-11-05 04:50:00
7:50 AM,48.2,44.6,87,30.01,6.2,Calm,Calm,-,N/A,,Partly Cloudy,0,2012-11-05 05:50:00
8:50 AM,53.6,46.4,77,30.01,6.2,Calm,Calm,-,N/A,,Partly Cloudy,0,2012-11-05 06:50:00
9:50 AM,59.0,46.4,63,30.01,6.2,Calm,Calm,-,N/A,,Partly Cloudy,0,2012-11-05 07:50:00
10:50 AM,62.6,48.2,59,30.01,6.2,Calm,Calm,-,N/A,,Scattered Clouds,0,2012-11-05 08:50:00
11:50 AM,64.4,50.0,59,29.98,6.2,SE,4.6,-,N/A,,Scattered Clouds,140,2012-11-05 09:50:00
12:50 PM,64.4,50.0,59,29.98,6.2,Calm,Calm,-,N/A,,Scattered Clouds,0,2012-11-05 10:50:00
1:50 PM,68.0,51.8,56,29.95,6.2,Calm,Calm,-,N/A,,Mostly Cloudy,0,2012-11-05 11:50:00
2:50 PM,66.2,51.8,60,29.92,6.2,Calm,Calm,-,N/A,,Mostly Cloudy,0,2012-11-05 12:50:00
3:50 PM,64.4,51.8,64,29.92,6.2,Calm,Calm,-,N/A,,Mostly Cloudy,0,2012-11-05 13:50:00
4:50 PM,64.4,51.8,64,29.92,6.2,Calm,Calm,-,N/A,,Mostly Cloudy,0,2012-11-05 14:50:00
5:50 PM,62.6,51.8,68,29.92,6.2,Calm,Calm,-,N/A,,Mostly Cloudy,0,2012-11-05 15:50:00
6:50 PM,60.8,53.6,77,29.92,6.2,Calm,Calm,-,N/A,,Mostly Cloudy,0,2012-11-05 16:50:00
7:50 PM,60.8,53.6,77,29.92,6.2,Calm,Calm,-,N/A,,Mostly Cloudy,0,2012-11-05 17:50:00
8:20 PM,64.4,53.6,68,29.92,-9999.0,SW,9.2,-,N/A,,Unknown,220,2012-11-05 18:20:00
8:50 PM,62.6,53.6,72,29.92,-9999.0,South,6.9,-,N/A,,Unknown,180,2012-11-05 18:50:00
9:20 PM,60.8,53.6,77,29.92,-9999.0,SE,4.6,-,N/A,,Unknown,140,2012-11-05 19:20:00
9:50 PM,60.8,53.6,77,29.92,-9999.0,Variable,3.5,-,N/A,,Unknown,0,2012-11-05 19:50:00
10:20 PM,60.8,53.6,77,29.89,-9999.0,Variable,1.2,-,N/A,,Unknown,0,2012-11-05 20:20:00
10:50 PM,59.0,53.6,82,29.89,-9999.0,NNE,4.6,-,N/A,,Unknown,30,2012-11-05 20:50:00
11:20 PM,59.0,53.6,82,29.89,-9999.0,Variable,3.5,-,N/A,,Unknown,0,2012-11-05 21:20:00
11:50 PM,60.8,53.6,77,29.89,-9999.0,Variable,3.5,-,N/A,,Unknown,0,2012-11-05 21:50:00